Regional Weather Roundup
Issued by NWS

Home | Current Version | Previous Version | Text Only | Print | Product List | Glossary On
Versions: 1 2 3 4 5 6 7 8 9 10 11 12 13 14 15 16 17 18 19 20 21 22 23 24 25 26 27 28 29 30 31 32 33 34 35 36 37 38 39 40 41 42 43 44 45 46 47 48 49 50
123
ASUS43 KTOP 262259
RWRKS

WEATHER ROUNDUP FOR KANSAS
NATIONAL WEATHER SERVICE GOODLAND KS
600 PM CDT WED JUL 26 2017

NOTE:  "FAIR" INDICATES FEW OR NO CLOUDS BELOW 12,000 FEET WITH NO
SIGNIFICANT WEATHER AND/OR OBSTRUCTIONS TO VISIBILITY.

KSZ001>006-013>018-027>032-041>047-270000-
NORTHWEST KANSAS

CITY           SKY/WX    TMP DP  RH WIND       PRES   REMARKS
GOODLAND       MOSUNNY   83  66  56 NE16G24   30.08F
HAYS           MOSUNNY   95  69  42 N12       29.90S HX 100
HILL CITY      MOSUNNY   90  71  53 N17       29.98R HX  96
RUSSELL        CLOUDY    95  68  41 E12       29.89S HX  99
$$

KSZ061>065-074>080-084>089-270000-
SOUTHWEST KANSAS

CITY           SKY/WX    TMP DP  RH WIND       PRES   REMARKS
DODGE CITY     MOSUNNY   97  65  34 NW7       29.95F HX  99
ELKHART          N/A     94  57  28 N8          N/A
GARDEN CITY    SUNNY     91  65  41 N13       29.99F
GREAT BEND     SUNNY     96  65  35 S10       29.91S HX  98
LIBERAL        CLOUDY    97  66  36 NE12      29.97F HX 100
$$

KSZ066>073-081>083-090>101-270000-
SOUTHEAST KANSAS

CITY           SKY/WX    TMP DP  RH WIND       PRES   REMARKS
CHANUTE        MOSUNNY   93  72  50 S16       29.95S HX 101
COFFEYVILLE    PTSUNNY   93  72  50 S15G22    29.95R HX 101
HUTCHINSON     CLOUDY    85  71  63 SE7       29.91S
MEDICINE LODGE   N/A     96  65  35 S10       29.87F HX  98
NEWTON         CLOUDY    75  71  87 SE9       29.93F
PARSONS        MOSUNNY   91  73  55 S9        29.96S HX  99
WICHITA INTL   CLOUDY    81  76  84 E5        29.90F
WICHITA JABRA  LGT RAIN  77  74  90 E5        29.91F
WINFIELD       CLOUDY    93  72  50 SE9       29.92F HX 101
$$

KSZ007>012-019>026-033>040-048>060-102>105-270000-
NORTHEAST KANSAS

CITY           SKY/WX    TMP DP  RH WIND       PRES   REMARKS
CONCORDIA      PTSUNNY   82  74  76 E6        29.97R
EMPORIA        LGT RAIN  81  76  84 E9        29.92F
LAWRENCE       CLOUDY    78  77  96 CALM      29.95F
MANHATTAN      CLOUDY    80  76  87 NE5       29.93R
OLATHE IND     LGT RAIN  78  76  93 E6        29.96F
OLATHE EXE     LGT RAIN  78  78 100 NE3       29.96F FOG
SALINA         CLOUDY    88  75  65 SE10      29.91S HX  97
TOPEKA BILLARD CLOUDY    77  77 100 SE7       29.93F
TOPEKA FORBES  CLOUDY    79  77  94 E8        29.94F
$$




USA.gov is the U.S. government's official web portal to all federal, state and local government web resources and services.